Satellite-Ground Cal/Val Region Overpasses Predictions

Prediction of Satellite NPP Overpassing Cal/Val Region: PacNW

Region Location: (Latitude: 10.00, Longitude: 139.50) to (Latitude: 22.70, Longitude: 165.60).

Table of predicted overpasses for the next 14.0 days since TLE Epoch: 1/21/2023
Interval Starting Time Starting Location Ending Time Ending Location
1 01/21/2023 15:38:06 ( 22.66, 150.78) 01/21/2023 15:41:41 ( 10.04, 147.77)
2 01/22/2023 02:47:11 ( 10.00, 158.30) 01/22/2023 02:50:47 ( 22.68, 155.27)
3 01/22/2023 15:19:05 ( 22.67, 155.54) 01/22/2023 15:22:40 ( 10.05, 152.53)
4 01/23/2023 02:28:11 ( 10.05, 163.04) 01/23/2023 02:31:46 ( 22.67, 160.03)
5 01/23/2023 15:00:03 ( 22.68, 160.30) 01/23/2023 15:03:39 ( 10.00, 157.28)
6 01/24/2023 02:11:49 ( 19.44, 165.59) 01/24/2023 02:12:44 ( 22.67, 164.79)
7 01/24/2023 03:50:39 ( 10.05, 142.43) 01/24/2023 03:54:08 ( 22.32, 139.51)
8 01/24/2023 14:41:02 ( 22.68, 165.06) 01/24/2023 14:44:38 ( 10.01, 162.04)
9 01/24/2023 16:22:32 ( 22.68, 139.69) 01/24/2023 16:22:44 ( 21.98, 139.51)
10 01/25/2023 03:31:38 ( 10.04, 147.19) 01/25/2023 03:35:13 ( 22.67, 144.18)
11 01/25/2023 16:03:30 ( 22.68, 144.45) 01/25/2023 16:07:06 ( 10.01, 141.42)
12 01/26/2023 03:12:36 ( 10.04, 151.95) 01/26/2023 03:16:11 ( 22.66, 148.94)
13 01/26/2023 15:44:29 ( 22.69, 149.20) 01/26/2023 15:48:05 ( 10.01, 146.18)
14 01/27/2023 02:53:35 ( 10.04, 156.71) 01/27/2023 02:57:10 ( 22.66, 153.70)
15 01/27/2023 15:25:27 ( 22.69, 153.96) 01/27/2023 15:29:03 ( 10.01, 150.94)
16 01/28/2023 02:34:33 ( 10.04, 161.46) 01/28/2023 02:38:08 ( 22.66, 158.46)
17 01/28/2023 15:06:26 ( 22.69, 158.72) 01/28/2023 15:10:02 ( 10.01, 155.70)
18 01/29/2023 02:16:19 ( 12.80, 165.59) 01/29/2023 02:19:07 ( 22.66, 163.21)
19 01/29/2023 03:57:02 ( 10.04, 140.85) 01/29/2023 03:58:40 ( 15.80, 139.51)
20 01/29/2023 14:47:25 ( 22.69, 163.48) 01/29/2023 14:51:01 ( 10.01, 160.46)
21 01/30/2023 03:38:00 ( 10.05, 145.61) 01/30/2023 03:41:35 ( 22.67, 142.60)
22 01/30/2023 14:31:31 ( 11.65, 165.60) 01/30/2023 14:31:59 ( 10.01, 165.22)
23 01/30/2023 16:09:53 ( 22.68, 142.86) 01/30/2023 16:13:29 ( 10.00, 139.84)
24 01/31/2023 03:18:59 ( 10.05, 150.36) 01/31/2023 03:22:34 ( 22.68, 147.36)
25 01/31/2023 15:50:52 ( 22.67, 147.62) 01/31/2023 15:54:27 ( 10.06, 144.61)
26 02/01/2023 02:59:56 ( 10.00, 155.14) 02/01/2023 03:03:32 ( 22.68, 152.11)
27 02/01/2023 15:31:50 ( 22.67, 152.38) 02/01/2023 15:35:25 ( 10.05, 149.37)
28 02/02/2023 02:40:55 ( 10.01, 159.89) 02/02/2023 02:44:31 ( 22.69, 156.87)
29 02/02/2023 15:12:49 ( 22.66, 157.14) 02/02/2023 15:16:24 ( 10.04, 154.13)
30 02/03/2023 02:21:53 ( 10.02, 164.65) 02/03/2023 02:25:28 ( 22.64, 161.64)
